Location: Newark
(40.3417°N, 75.9264°W)
Time: 02:04:21
(UTC+00:00)

ISS - Visible Passes

Search period start: 26 February 2020 00:00
Search period end: 07 March 2020 00:00
Orbit: 415 x 422 km, 51.6° (Epoch: 26 February)

Date Brightness Start Highest point End Pass type
(mag) Time Alt. Az. Time Alt. Az. Time Alt. Az.
26 Feb -2.9 10:23:47 31° NW 10:24:25 34° NNW 10:27:33 10° NE visible
27 Feb -2.0 09:38:10 28° NNE 09:38:10 28° NNE 09:40:00 10° NE visible
27 Feb -1.6 11:11:57 10° NW 11:14:05 15° NNW 11:16:12 10° NNE visible
28 Feb -1.9 10:25:25 18° NW 10:26:12 19° NNW 10:28:41 10° NNE visible
29 Feb -1.5 09:39:38 19° N 09:39:38 19° N 09:41:11 10° NNE visible
01 Mar -1.4 10:26:45 11° NW 10:28:05 13° N 10:29:51 10° NNE visible
02 Mar -1.2 09:40:53 15° N 09:40:53 15° N 09:42:16 10° NNE visible
03 Mar -1.2 10:28:34 10° NNW 10:30:02 12° N 10:31:30 10° NNE visible
04 Mar -1.1 09:42:00 12° N 09:42:02 12° N 09:43:32 10° NNE visible
05 Mar -1.1 10:29:58 10° NNW 10:31:55 14° NNE 10:33:51 10° NE visible
06 Mar -1.1 09:43:06 12° N 09:43:54 13° N 09:45:31 10° NE visible
